Weather in Lipovtsy

Russia / Primorsky Krai     44°11′52″N   131°43′06″E
temp.,
°C
wind,
m/s
gust,
m/s
humid.,
%
clouds,
%
prec.,
mm/h
press.,
hPa
HPBL,
m
15 april, thu
thu1501:00+2wsw35363 0.0 1012101
04:00+1w223758 0.0 101421
07:000s3339100 0.0 101544
10:00+6s452780 0.0 1014447
13:00+12s57206 0.0 10121304
16:00+14sse89268 0.0 10101024
19:00+10s91535100 0.0 1011636
22:00+7s81551100 0.0 1013544
16 april, fri
fri1601:00+6s81667100 0.0 1013566
04:00+5s716816 0.0 1012678
07:00+6s91784100 0.0 1011973
10:00+7s101974100 0.0 10101340
13:00+8s101772100 0.1 10091341
16:00+8s81680100 0.2 10061354
19:00+9s9157156 0.3 10051519
22:00+6s71285100 0.4 1005757
17 april, sat
sat1701:00+5s599197 0.1 1005336
04:00+5s5108868 0.1 1005243
07:00+3s36870 0.0 1007126
10:00+9ssw46509 0.0 1008920
13:00+13ssw463695 0.0 10082252
16:00+13wsw353571 0.0 10062296
19:00+13sw223579 0.0 10061305
22:00+9ssw235496 0.0 100875
18 april, sun
sun1801:00+7nne5107294 0.4 1008422
04:00+6nnw368494 0.4 1008175
07:00+6nnw612759 0.0 1009724
10:00+9n8105744 0.0 10091430
13:00+10n81151100 0.1 10081826
16:00+12nnw81044100 0.1 10072067
19:00+12nnw711466 0.0 10071555
22:00+9wnw49575 0.0 1008246
19 april, mon
mon1901:00+8wnw512586 0.0 1008284
04:00+8wnw410585 0.0 1009195
07:00+7wnw38600 0.0 1009150
10:00+13nnw59370 0.0 1009976
13:00+17n57275 0.0 10092211
16:00+19n57245 0.0 10072640
19:00+18nne353072 0.0 1008367
22:00+13sw11434 0.0 101010